User: anonymous   Login
Location: Avully
(45.9633°N, 6.0228°E)
Time: 20:15:27
(UTC+00:00)
Language:

Cosmos 1833 Rocket - Orbit

View from above orbital plane
View from above orbital plane
View from above satellite
View from above satellite

Ground track
Ground track

The orbit data is extracted from the following two-line orbital elements,

1 17590U 87027B   24197.43643399  .00000211  00000-0  12894-3 0  9991
2 17590  71.0034 105.4346 0006664 305.5833  54.4669 14.16984654930061
Epoch (UTC): 15 July 2024 10:28:27
Eccentricity: 0.0006664
inclination: 71.0034°
perigee height: 831 km
apogee height: 840 km
right ascension of ascending node: 105.4346°
argument of perigee: 305.5833°
revolutions per day: 14.16984654
mean anomaly at epoch: 54.4669°
orbit number at epoch: 93006

The dashed part of the orbit path shows where the satellite is in the earth's shadow,  

DLR